Time,TemperatureF,DewpointF,PressureIn,WindDirection,WindDirectionDegrees,WindSpeedMPH,WindSpeedGustMPH,Humidity,HourlyPrecipIn,Conditions,Clouds,dailyrainin,SoftwareType,DateUTC
2013-01-10 00:01:00,53.7,50.5,30.45,NNE,15,0.0,0.0,89,0.00,CLR,,0.00,WeatherDisplay:10.37,2013-01-10 05:01:00,
2013-01-10 00:03:00,53.7,50.5,30.45,NNE,14,0.0,0.0,89,0.00,CLR,,0.00,WeatherDisplay:10.37,2013-01-10 05:03:00,
2013-01-10 00:08:00,53.6,50.4,30.45,NNE,15,0.0,0.0,89,0.00,CLR,,0.00,WeatherDisplay:10.37,2013-01-10 05:08:00,
2013-01-10 00:13:00,53.4,50.5,30.45,NNE,15,0.0,0.0,90,0.00,CLR,,0.00,WeatherDisplay:10.37,2013-01-10 05:13:00,
2013-01-10 00:18:00,53.3,50.1,30.45,NNE,15,0.0,0.0,89,0.00,CLR,,0.00,WeatherDisplay:10.37,2013-01-10 05:18:00,
2013-01-10 00:23:00,53.2,50.0,30.45,NNE,14,0.0,0.0,89,0.00,CLR,,0.00,WeatherDisplay:10.37,2013-01-10 05:23:00,
2013-01-10 00:28:00,53.1,49.9,30.45,West,275,3.5,3.5,89,0.00,CLR,,0.00,WeatherDisplay:10.37,2013-01-10 05:28:00,
2013-01-10 00:33:00,52.9,49.7,30.45,West,275,2.3,2.3,89,0.00,CLR,,0.00,WeatherDisplay:10.37,2013-01-10 05:33:00,
2013-01-10 00:38:00,52.7,49.8,30.45,West,275,3.5,3.5,90,0.00,CLR,,0.00,WeatherDisplay:10.37,2013-01-10 05:38:00,
2013-01-10 00:43:00,52.6,49.8,30.45,West,275,0.0,0.0,90,0.00,CLR,,0.00,WeatherDisplay:10.37,2013-01-10 05:43:00,
2013-01-10 00:48:00,52.4,49.6,30.44,West,275,0.0,0.0,90,0.00,CLR,,0.00,WeatherDisplay:10.37,2013-01-10 05:48:00,
2013-01-10 00:53:00,52.3,49.5,30.44,West,275,0.0,0.0,90,0.00,CLR,,0.00,WeatherDisplay:10.37,2013-01-10 05:53:00,
2013-01-10 00:58:00,52.2,49.4,30.44,West,275,0.0,0.0,90,0.00,CLR,,0.00,WeatherDisplay:10.37,2013-01-10 05:58:00,
2013-01-10 01:03:00,52.1,49.3,30.44,West,275,0.0,0.0,90,0.00,CLR,,0.00,WeatherDisplay:10.37,2013-01-10 06:03:00,
2013-01-10 01:08:00,51.9,49.4,30.44,West,275,0.0,0.0,91,0.00,CLR,,0.00,WeatherDisplay:10.37,2013-01-10 06:08:00,
2013-01-10 01:13:00,51.7,49.2,30.44,West,275,0.0,0.0,91,0.00,CLR,,0.00,WeatherDisplay:10.37,2013-01-10 06:13:00,
2013-01-10 01:18:00,51.5,49.0,30.44,West,275,0.0,0.0,91,0.00,CLR,,0.00,WeatherDisplay:10.37,2013-01-10 06:18:00,
2013-01-10 01:23:00,51.4,48.9,30.44,West,275,0.0,0.0,91,0.00,CLR,,0.00,WeatherDisplay:10.37,2013-01-10 06:23:00,
2013-01-10 01:28:00,51.3,49.1,30.44,West,275,0.0,0.0,92,0.00,CLR,,0.00,WeatherDisplay:10.37,2013-01-10 06:28:00,
2013-01-10 01:33:00,51.3,49.1,30.44,West,275,0.0,0.0,92,0.00,CLR,,0.00,WeatherDisplay:10.37,2013-01-10 06:33:00,
2013-01-10 01:38:00,51.2,49.0,30.44,West,275,0.0,0.0,92,0.00,CLR,,0.00,WeatherDisplay:10.37,2013-01-10 06:38:00,
2013-01-10 01:43:00,51.2,49.0,30.44,West,275,0.0,0.0,92,0.00,CLR,,0.00,WeatherDisplay:10.37,2013-01-10 06:43:00,
2013-01-10 01:48:00,51.2,49.0,30.45,West,275,0.0,0.0,92,0.00,CLR,,0.00,WeatherDisplay:10.37,2013-01-10 06:48:00,
2013-01-10 01:53:00,51.2,49.2,30.45,West,275,0.0,0.0,93,0.00,CLR,,0.00,WeatherDisplay:10.37,2013-01-10 06:53:00,
2013-01-10 01:58:00,51.2,49.2,30.45,West,275,0.0,0.0,93,0.00,CLR,,0.00,WeatherDisplay:10.37,2013-01-10 06:58:00,
2013-01-10 02:03:00,51.0,48.8,30.45,West,275,0.0,0.0,92,0.00,CLR,,0.00,WeatherDisplay:10.37,2013-01-10 07:03:00,
2013-01-10 02:08:00,50.8,48.6,30.45,West,275,0.0,0.0,92,0.00,CLR,,0.00,WeatherDisplay:10.37,2013-01-10 07:08:00,
2013-01-10 02:13:00,50.6,48.4,30.45,West,275,0.0,0.0,92,0.00,CLR,,0.00,WeatherDisplay:10.37,2013-01-10 07:13:00,
2013-01-10 02:18:00,50.5,48.3,30.45,West,275,0.0,0.0,92,0.00,CLR,,0.00,WeatherDisplay:10.37,2013-01-10 07:18:00,
2013-01-10 02:23:00,50.5,48.3,30.45,West,275,0.0,0.0,92,0.00,CLR,,0.00,WeatherDisplay:10.37,2013-01-10 07:23:00,
2013-01-10 02:28:00,50.4,48.5,30.45,West,275,0.0,0.0,93,0.00,CLR,,0.00,WeatherDisplay:10.37,2013-01-10 07:28:00,
2013-01-10 02:33:00,50.4,48.5,30.45,West,275,0.0,0.0,93,0.00,CLR,,0.00,WeatherDisplay:10.37,2013-01-10 07:33:00,
2013-01-10 02:38:00,50.5,48.6,30.45,West,275,0.0,0.0,93,0.00,CLR,,0.00,WeatherDisplay:10.37,2013-01-10 07:38:00,
2013-01-10 02:43:00,50.5,48.6,30.44,West,275,0.0,0.0,93,0.00,CLR,,0.00,WeatherDisplay:10.37,2013-01-10 07:43:00,
2013-01-10 02:48:00,50.4,48.5,30.44,West,275,0.0,0.0,93,0.00,CLR,,0.00,WeatherDisplay:10.37,2013-01-10 07:48:00,
2013-01-10 02:53:00,50.4,48.5,30.44,West,275,0.0,0.0,93,0.00,CLR,,0.00,WeatherDisplay:10.37,2013-01-10 07:53:00,
2013-01-10 02:58:00,50.4,48.5,30.45,West,275,0.0,0.0,93,0.00,CLR,,0.00,WeatherDisplay:10.37,2013-01-10 07:58:00,
2013-01-10 03:03:00,50.4,48.5,30.45,West,275,0.0,0.0,93,0.00,CLR,,0.00,WeatherDisplay:10.37,2013-01-10 08:03:00,
2013-01-10 03:08:00,50.4,48.5,30.45,West,275,0.0,0.0,93,0.00,CLR,,0.00,WeatherDisplay:10.37,2013-01-10 08:08:00,
2013-01-10 03:13:00,50.5,48.6,30.44,West,275,0.0,0.0,93,0.00,CLR,,0.00,WeatherDisplay:10.37,2013-01-10 08:13:00,
2013-01-10 03:18:00,50.5,48.6,30.44,West,275,0.0,0.0,93,0.00,CLR,,0.00,WeatherDisplay:10.37,2013-01-10 08:18:00,
2013-01-10 03:23:00,50.3,48.4,30.44,West,275,0.0,0.0,93,0.00,CLR,,0.00,WeatherDisplay:10.37,2013-01-10 08:23:00,
2013-01-10 03:28:00,49.9,48.0,30.44,West,275,0.0,0.0,93,0.00,CLR,,0.00,WeatherDisplay:10.37,2013-01-10 08:28:00,
2013-01-10 03:33:00,49.6,47.7,30.44,West,275,0.0,0.0,93,0.00,CLR,,0.00,WeatherDisplay:10.37,2013-01-10 08:33:00,
2013-01-10 03:38:00,49.5,47.6,30.44,West,275,0.0,0.0,93,0.00,CLR,,0.00,WeatherDisplay:10.37,2013-01-10 08:38:00,
2013-01-10 03:43:00,49.5,47.6,30.44,West,275,0.0,0.0,93,0.00,CLR,,0.00,WeatherDisplay:10.37,2013-01-10 08:43:00,
2013-01-10 03:48:00,49.5,47.6,30.44,West,275,0.0,0.0,93,0.00,CLR,,0.00,WeatherDisplay:10.37,2013-01-10 08:48:00,
2013-01-10 03:53:00,49.4,47.5,30.43,West,275,0.0,0.0,93,0.00,CLR,,0.00,WeatherDisplay:10.37,2013-01-10 08:53:00,
2013-01-10 03:58:00,49.2,47.3,30.43,West,275,2.3,2.3,93,0.00,CLR,,0.00,WeatherDisplay:10.37,2013-01-10 08:58:00,
2013-01-10 04:03:00,49.1,47.4,30.43,West,275,2.3,2.3,94,0.00,CLR,,0.00,WeatherDisplay:10.37,2013-01-10 09:03:00,
2013-01-10 04:08:00,49.1,47.4,30.43,East,98,2.3,2.3,94,0.00,CLR,,0.00,WeatherDisplay:10.37,2013-01-10 09:08:00,
2013-01-10 04:13:00,49.2,47.5,30.44,East,98,2.3,2.3,94,0.00,CLR,,0.00,WeatherDisplay:10.37,2013-01-10 09:13:00,
2013-01-10 04:18:00,49.4,47.7,30.43,East,98,2.3,2.3,94,0.00,CLR,,0.00,WeatherDisplay:10.37,2013-01-10 09:18:00,
2013-01-10 04:23:00,49.6,47.9,30.43,East,98,2.3,2.3,94,0.00,CLR,,0.00,WeatherDisplay:10.37,2013-01-10 09:23:00,
2013-01-10 04:28:00,49.4,47.7,30.43,East,98,0.0,0.0,94,0.00,CLR,,0.00,WeatherDisplay:10.37,2013-01-10 09:28:00,
2013-01-10 04:33:00,49.4,47.7,30.43,East,98,2.3,2.3,94,0.00,CLR,,0.00,WeatherDisplay:10.37,2013-01-10 09:33:00,
2013-01-10 04:38:00,49.4,47.7,30.43,East,98,3.5,3.5,94,0.00,CLR,,0.00,WeatherDisplay:10.37,2013-01-10 09:38:00,
2013-01-10 04:43:00,49.5,47.8,30.43,East,98,3.5,3.5,94,0.00,CLR,,0.00,WeatherDisplay:10.37,2013-01-10 09:43:00,
2013-01-10 04:48:00,49.6,47.9,30.43,East,98,2.3,2.3,94,0.00,CLR,,0.00,WeatherDisplay:10.37,2013-01-10 09:48:00,
2013-01-10 04:53:00,49.6,47.9,30.43,East,98,0.0,0.0,94,0.00,CLR,,0.00,WeatherDisplay:10.37,2013-01-10 09:53:00,
2013-01-10 04:58:00,49.7,48.0,30.43,East,98,0.0,0.0,94,0.00,CLR,,0.00,WeatherDisplay:10.37,2013-01-10 09:58:00,
2013-01-10 05:03:00,49.7,48.0,30.43,East,98,0.0,0.0,94,0.00,CLR,,0.00,WeatherDisplay:10.37,2013-01-10 10:03:00,
2013-01-10 05:08:00,49.8,48.1,30.43,East,98,0.0,0.0,94,0.00,CLR,,0.00,WeatherDisplay:10.37,2013-01-10 10:08:00,
2013-01-10 05:13:00,49.8,48.1,30.44,East,98,0.0,0.0,94,0.00,CLR,,0.00,WeatherDisplay:10.37,2013-01-10 10:13:00,
2013-01-10 05:18:00,49.6,47.9,30.44,East,98,0.0,0.0,94,0.00,CLR,,0.00,WeatherDisplay:10.37,2013-01-10 10:18:00,
2013-01-10 05:23:00,49.4,47.7,30.44,East,98,0.0,0.0,94,0.00,CLR,,0.00,WeatherDisplay:10.37,2013-01-10 10:23:00,
2013-01-10 05:28:00,49.2,47.5,30.44,East,98,0.0,0.0,94,0.00,CLR,,0.00,WeatherDisplay:10.37,2013-01-10 10:28:00,
2013-01-10 05:33:00,49.1,47.4,30.44,East,98,0.0,0.0,94,0.00,CLR,,0.00,WeatherDisplay:10.37,2013-01-10 10:33:00,
2013-01-10 05:38:00,48.9,47.2,30.44,East,98,0.0,0.0,94,0.00,CLR,,0.00,WeatherDisplay:10.37,2013-01-10 10:38:00,
2013-01-10 05:43:00,48.8,47.2,30.44,East,98,0.0,0.0,94,0.00,CLR,,0.00,WeatherDisplay:10.37,2013-01-10 10:43:00,
2013-01-10 05:48:00,48.7,47.1,30.44,East,98,0.0,0.0,94,0.00,CLR,,0.00,WeatherDisplay:10.37,2013-01-10 10:48:00,
2013-01-10 05:53:00,48.7,47.1,30.45,East,98,0.0,0.0,94,0.00,CLR,,0.00,WeatherDisplay:10.37,2013-01-10 10:53:00,
2013-01-10 05:58:00,48.7,47.1,30.45,East,98,0.0,0.0,94,0.00,CLR,,0.00,WeatherDisplay:10.37,2013-01-10 10:58:00,
2013-01-10 06:03:00,48.7,47.1,30.45,East,98,0.0,0.0,94,0.00,CLR,,0.00,WeatherDisplay:10.37,2013-01-10 11:03:00,
2013-01-10 06:08:00,48.6,47.0,30.45,East,98,0.0,0.0,94,0.00,CLR,,0.00,WeatherDisplay:10.37,2013-01-10 11:08:00,
2013-01-10 06:13:00,48.4,46.8,30.45,East,98,0.0,0.0,94,0.00,CLR,,0.00,WeatherDisplay:10.37,2013-01-10 11:13:00,
2013-01-10 06:18:00,48.4,46.8,30.45,East,98,0.0,0.0,94,0.00,CLR,,0.00,WeatherDisplay:10.37,2013-01-10 11:18:00,
2013-01-10 06:23:00,48.3,46.7,30.45,East,98,0.0,0.0,94,0.00,CLR,,0.00,WeatherDisplay:10.37,2013-01-10 11:23:00,
2013-01-10 06:28:00,48.3,46.7,30.45,East,98,0.0,0.0,94,0.00,CLR,,0.00,WeatherDisplay:10.37,2013-01-10 11:28:00,
2013-01-10 06:33:00,48.3,46.7,30.45,East,98,0.0,0.0,94,0.00,CLR,,0.00,WeatherDisplay:10.37,2013-01-10 11:33:00,
2013-01-10 06:38:00,48.3,46.7,30.45,East,98,0.0,0.0,94,0.00,CLR,,0.00,WeatherDisplay:10.37,2013-01-10 11:38:00,
2013-01-10 06:43:00,48.3,46.7,30.46,East,98,0.0,0.0,94,0.00,CLR,,0.00,WeatherDisplay:10.37,2013-01-10 11:43:00,
2013-01-10 06:48:00,48.2,46.6,30.46,East,98,0.0,0.0,94,0.00,CLR,,0.00,WeatherDisplay:10.37,2013-01-10 11:48:00,
2013-01-10 06:53:00,48.2,46.8,30.46,East,98,0.0,0.0,95,0.00,CLR,,0.00,WeatherDisplay:10.37,2013-01-10 11:53:00,
2013-01-10 06:58:00,48.3,46.7,30.46,East,98,0.0,0.0,94,0.00,CLR,,0.00,WeatherDisplay:10.37,2013-01-10 11:58:00,
2013-01-10 07:03:00,48.2,46.8,30.46,East,98,0.0,0.0,95,0.00,CLR,,0.00,WeatherDisplay:10.37,2013-01-10 12:03:00,
2013-01-10 07:08:00,48.2,46.8,30.47,East,98,0.0,0.0,95,0.00,CLR,,0.00,WeatherDisplay:10.37,2013-01-10 12:08:00,
2013-01-10 07:13:00,48.2,46.8,30.47,East,98,0.0,0.0,95,0.00,CLR,,0.00,WeatherDisplay:10.37,2013-01-10 12:13:00,
2013-01-10 07:18:00,48.2,46.8,30.47,East,98,0.0,0.0,95,0.00,CLR,,0.00,WeatherDisplay:10.37,2013-01-10 12:18:00,
2013-01-10 07:23:00,48.2,46.8,30.47,East,98,0.0,0.0,95,0.00,CLR,,0.00,WeatherDisplay:10.37,2013-01-10 12:23:00,
2013-01-10 07:28:00,48.2,46.8,30.47,East,98,0.0,0.0,95,0.00,CLR,,0.00,WeatherDisplay:10.37,2013-01-10 12:28:00,
2013-01-10 07:33:00,48.2,46.8,30.48,East,98,0.0,0.0,95,0.00,CLR,,0.00,WeatherDisplay:10.37,2013-01-10 12:33:00,
2013-01-10 07:38:00,48.2,46.8,30.48,East,98,0.0,0.0,95,0.00,CLR,,0.00,WeatherDisplay:10.37,2013-01-10 12:38:00,
2013-01-10 07:43:00,48.2,46.8,30.48,East,98,0.0,0.0,95,0.00,CLR,,0.00,WeatherDisplay:10.37,2013-01-10 12:43:00,
2013-01-10 07:48:00,48.2,46.8,30.48,East,98,0.0,0.0,95,0.00,CLR,,0.00,WeatherDisplay:10.37,2013-01-10 12:48:00,
2013-01-10 07:53:00,48.3,46.9,30.48,East,98,0.0,0.0,95,0.00,CLR,,0.00,WeatherDisplay:10.37,2013-01-10 12:53:00,
2013-01-10 07:58:00,48.3,46.9,30.48,East,98,0.0,0.0,95,0.00,CLR,,0.00,WeatherDisplay:10.37,2013-01-10 12:58:00,
2013-01-10 08:03:00,48.3,46.9,30.49,East,98,0.0,0.0,95,0.00,CLR,,0.00,WeatherDisplay:10.37,2013-01-10 13:03:00,
2013-01-10 08:08:00,48.3,46.9,30.49,East,98,0.0,0.0,95,0.00,CLR,,0.00,WeatherDisplay:10.37,2013-01-10 13:08:00,
2013-01-10 08:13:00,48.3,46.9,30.49,East,98,0.0,0.0,95,0.00,CLR,,0.00,WeatherDisplay:10.37,2013-01-10 13:13:00,
2013-01-10 08:18:00,48.3,46.9,30.49,East,98,0.0,0.0,95,0.00,CLR,,0.00,WeatherDisplay:10.37,2013-01-10 13:18:00,
2013-01-10 08:23:00,48.3,46.9,30.49,East,97,0.0,0.0,95,0.00,CLR,,0.00,WeatherDisplay:10.37,2013-01-10 13:23:00,
2013-01-10 08:28:00,48.5,47.1,30.49,East,97,0.0,0.0,95,0.00,CLR,,0.00,WeatherDisplay:10.37,2013-01-10 13:28:00,
2013-01-10 08:33:00,48.7,47.3,30.49,NW,313,0.0,0.0,95,0.00,CLR,,0.00,WeatherDisplay:10.37,2013-01-10 13:33:00,
2013-01-10 08:38:00,49.0,47.6,30.49,NW,313,0.0,0.0,95,0.00,CLR,,0.00,WeatherDisplay:10.37,2013-01-10 13:38:00,
2013-01-10 08:43:00,49.6,48.2,30.50,NE,40,1.2,0.0,95,0.00,CLR,,0.00,WeatherDisplay:10.37,2013-01-10 13:43:00,
2013-01-10 08:48:00,50.2,48.8,30.50,NE,41,3.0,3.0,95,0.00,CLR,,0.00,WeatherDisplay:10.37,2013-01-10 13:48:00,
2013-01-10 08:53:00,50.5,49.1,30.50,East,80,0.0,0.0,95,0.00,CLR,,0.00,WeatherDisplay:10.37,2013-01-10 13:53:00,
2013-01-10 08:58:00,50.8,49.4,30.50,ENE,71,3.5,3.5,95,0.00,CLR,,0.00,WeatherDisplay:10.37,2013-01-10 13:58:00,
2013-01-10 09:03:00,51.0,49.6,30.50,NE,54,3.5,3.5,95,0.00,CLR,,0.00,WeatherDisplay:10.37,2013-01-10 14:03:00,
2013-01-10 09:08:00,51.3,49.9,30.50,NE,54,2.3,2.3,95,0.00,CLR,,0.00,WeatherDisplay:10.37,2013-01-10 14:08:00,
2013-01-10 09:13:00,51.7,50.3,30.50,NE,48,0.0,0.0,95,0.00,CLR,,0.00,WeatherDisplay:10.37,2013-01-10 14:13:00,
2013-01-10 09:18:00,52.1,50.7,30.51,NE,49,3.5,3.5,95,0.00,CLR,,0.00,WeatherDisplay:10.37,2013-01-10 14:18:00,
2013-01-10 09:23:00,52.5,51.1,30.51,NE,52,3.5,3.5,95,0.00,CLR,,0.00,WeatherDisplay:10.37,2013-01-10 14:23:00,
2013-01-10 09:28:00,53.0,51.3,30.51,NE,45,4.6,4.6,94,0.00,CLR,,0.00,WeatherDisplay:10.37,2013-01-10 14:28:00,
2013-01-10 09:33:00,53.7,51.1,30.51,NE,47,3.5,3.5,91,0.00,CLR,,0.00,WeatherDisplay:10.37,2013-01-10 14:33:00,
2013-01-10 09:38:00,54.4,50.9,30.51,ENE,69,3.5,3.5,88,0.00,CLR,,0.00,WeatherDisplay:10.37,2013-01-10 14:38:00,
2013-01-10 09:43:00,55.2,50.4,30.51,East,90,6.0,6.0,84,0.00,CLR,,0.00,WeatherDisplay:10.37,2013-01-10 14:43:00,
2013-01-10 09:48:00,55.7,50.6,30.51,East,101,5.0,5.0,83,0.00,CLR,,0.00,WeatherDisplay:10.37,2013-01-10 14:48:00,
2013-01-10 09:53:00,56.2,50.1,30.51,NE,56,4.6,4.6,80,0.00,CLR,,0.00,WeatherDisplay:10.37,2013-01-10 14:53:00,
2013-01-10 09:58:00,56.6,49.8,30.51,ESE,108,4.0,4.0,78,0.00,CLR,,0.00,WeatherDisplay:10.37,2013-01-10 14:58:00,
2013-01-10 10:03:00,57.0,49.9,30.51,East,95,4.6,4.6,77,0.00,CLR,,0.00,WeatherDisplay:10.37,2013-01-10 15:03:00,
2013-01-10 10:08:00,57.3,49.4,30.51,ENE,74,4.6,4.6,75,0.00,CLR,,0.00,WeatherDisplay:10.37,2013-01-10 15:08:00,
2013-01-10 10:13:00,57.6,49.4,30.51,East,87,6.9,6.9,74,0.00,CLR,,0.00,WeatherDisplay:10.37,2013-01-10 15:13:00,
2013-01-10 10:18:00,57.8,48.8,30.51,East,92,4.6,4.6,72,0.00,CLR,,0.00,WeatherDisplay:10.37,2013-01-10 15:18:00,
2013-01-10 10:23:00,58.0,48.3,30.51,NE,51,9.2,9.2,70,0.00,CLR,,0.00,WeatherDisplay:10.37,2013-01-10 15:23:00,
2013-01-10 10:28:00,58.2,48.5,30.51,ENE,71,3.5,3.5,70,0.00,CLR,,0.00,WeatherDisplay:10.37,2013-01-10 15:28:00,
2013-01-10 10:33:00,58.5,48.7,30.51,NE,56,4.0,4.0,70,0.00,CLR,,0.00,WeatherDisplay:10.37,2013-01-10 15:33:00,
2013-01-10 10:38:00,59.0,48.8,30.51,East,80,4.6,4.6,69,0.00,CLR,,0.00,WeatherDisplay:10.37,2013-01-10 15:38:00,
2013-01-10 10:43:00,59.1,48.5,30.50,East,86,3.5,3.5,68,0.00,CLR,,0.00,WeatherDisplay:10.37,2013-01-10 15:43:00,
2013-01-10 10:48:00,59.6,47.0,30.50,NE,34,10.4,10.4,63,0.00,CLR,,0.00,WeatherDisplay:10.37,2013-01-10 15:48:00,
2013-01-10 10:53:00,59.8,46.7,30.50,ENE,66,8.1,8.1,62,0.00,CLR,,0.00,WeatherDisplay:10.37,2013-01-10 15:53:00,
2013-01-10 10:58:00,60.0,46.9,30.50,NE,40,5.8,5.8,62,0.00,CLR,,0.00,WeatherDisplay:10.37,2013-01-10 15:58:00,
2013-01-10 11:03:00,59.9,46.4,30.50,ENE,61,11.5,11.5,61,0.00,CLR,,0.00,WeatherDisplay:10.37,2013-01-10 16:03:00,
2013-01-10 11:08:00,59.9,46.0,30.50,NE,44,4.6,4.6,60,0.00,CLR,,0.00,WeatherDisplay:10.37,2013-01-10 16:08:00,
2013-01-10 11:13:00,60.0,46.5,30.50,ENE,64,3.5,3.5,61,0.00,CLR,,0.00,WeatherDisplay:10.37,2013-01-10 16:13:00,
2013-01-10 11:18:00,60.1,46.6,30.50,East,80,3.5,3.5,61,0.00,CLR,,0.00,WeatherDisplay:10.37,2013-01-10 16:18:00,
2013-01-10 11:23:00,60.2,46.7,30.50,ENE,59,3.5,3.5,61,0.00,CLR,,0.00,WeatherDisplay:10.37,2013-01-10 16:23:00,
2013-01-10 11:28:00,60.4,46.9,30.49,ENE,69,4.6,4.6,61,0.00,CLR,,0.00,WeatherDisplay:10.37,2013-01-10 16:28:00,
2013-01-10 11:33:00,60.6,45.7,30.49,NE,47,5.8,5.8,58,0.00,CLR,,0.00,WeatherDisplay:10.37,2013-01-10 16:33:00,
2013-01-10 11:38:00,60.8,44.5,30.49,NE,56,5.0,5.0,55,0.00,CLR,,0.00,WeatherDisplay:10.37,2013-01-10 16:38:00,
2013-01-10 11:43:00,61.0,44.2,30.48,East,94,6.9,6.9,54,0.00,CLR,,0.00,WeatherDisplay:10.37,2013-01-10 16:43:00,
2013-01-10 11:48:00,61.0,44.2,30.48,East,92,6.9,6.9,54,0.00,CLR,,0.00,WeatherDisplay:10.37,2013-01-10 16:48:00,
2013-01-10 11:53:00,61.0,44.7,30.47,NE,34,3.5,3.5,55,0.00,CLR,,0.00,WeatherDisplay:10.37,2013-01-10 16:53:00,
2013-01-10 11:58:00,61.1,44.8,30.47,ENE,65,4.6,4.6,55,0.00,CLR,,0.00,WeatherDisplay:10.37,2013-01-10 16:58:00,
2013-01-10 12:03:00,61.3,45.0,30.47,ESE,111,3.5,3.5,55,0.00,CLR,,0.00,WeatherDisplay:10.37,2013-01-10 17:03:00,
2013-01-10 12:08:00,61.4,44.6,30.47,ENE,74,4.6,4.6,54,0.00,CLR,,0.00,WeatherDisplay:10.37,2013-01-10 17:08:00,
2013-01-10 12:13:00,61.4,45.1,30.46,East,82,2.3,2.3,55,0.00,CLR,,0.00,WeatherDisplay:10.37,2013-01-10 17:13:00,
2013-01-10 12:18:00,61.6,45.7,30.46,NE,48,3.5,3.5,56,0.00,CLR,,0.00,WeatherDisplay:10.37,2013-01-10 17:18:00,
2013-01-10 12:23:00,61.7,45.4,30.46,ENE,69,0.0,0.0,55,0.00,CLR,,0.00,WeatherDisplay:10.37,2013-01-10 17:23:00,
2013-01-10 12:28:00,62.0,45.6,30.46,NE,39,5.0,5.0,55,0.00,CLR,,0.00,WeatherDisplay:10.37,2013-01-10 17:28:00,
2013-01-10 12:33:00,62.1,46.2,30.45,NNE,30,0.0,0.0,56,0.00,CLR,,0.00,WeatherDisplay:10.37,2013-01-10 17:33:00,
2013-01-10 12:38:00,62.5,46.1,30.45,ESE,105,3.5,3.5,55,0.00,CLR,,0.00,WeatherDisplay:10.37,2013-01-10 17:38:00,
2013-01-10 12:43:00,62.7,45.8,30.45,East,86,4.6,4.6,54,0.00,CLR,,0.00,WeatherDisplay:10.37,2013-01-10 17:43:00,
2013-01-10 12:48:00,63.0,46.6,30.45,East,87,3.5,3.5,55,0.00,CLR,,0.00,WeatherDisplay:10.37,2013-01-10 17:48:00,
2013-01-10 12:53:00,63.2,46.8,30.45,NE,35,4.6,4.6,55,0.00,CLR,,0.00,WeatherDisplay:10.37,2013-01-10 17:53:00,
2013-01-10 12:58:00,63.3,46.9,30.44,NNE,23,4.0,4.0,55,0.00,CLR,,0.00,WeatherDisplay:10.37,2013-01-10 17:58:00,
2013-01-10 13:03:00,63.5,47.0,30.44,NE,36,4.6,4.6,55,0.00,CLR,,0.00,WeatherDisplay:10.37,2013-01-10 18:03:00,
2013-01-10 13:08:00,63.7,47.7,30.44,NE,53,9.2,9.2,56,0.00,CLR,,0.00,WeatherDisplay:10.37,2013-01-10 18:08:00,
2013-01-10 13:13:00,63.9,46.9,30.44,ENE,78,3.5,3.5,54,0.00,CLR,,0.00,WeatherDisplay:10.37,2013-01-10 18:13:00,
2013-01-10 13:18:00,64.0,47.5,30.43,ESE,111,4.6,4.6,55,0.00,CLR,,0.00,WeatherDisplay:10.37,2013-01-10 18:18:00,
2013-01-10 13:23:00,64.1,47.6,30.43,ESE,103,3.5,3.5,55,0.00,CLR,,0.00,WeatherDisplay:10.37,2013-01-10 18:23:00,
2013-01-10 13:28:00,64.2,47.2,30.43,ENE,62,9.2,9.2,54,0.00,CLR,,0.00,WeatherDisplay:10.37,2013-01-10 18:28:00,
2013-01-10 13:33:00,64.1,47.1,30.43,NE,46,4.6,4.6,54,0.00,CLR,,0.00,WeatherDisplay:10.37,2013-01-10 18:33:00,
2013-01-10 13:38:00,64.1,47.1,30.43,NE,55,5.8,5.8,54,0.00,CLR,,0.00,WeatherDisplay:10.37,2013-01-10 18:38:00,
2013-01-10 13:43:00,64.1,47.6,30.44,NNE,28,2.3,2.3,55,0.00,CLR,,0.00,WeatherDisplay:10.37,2013-01-10 18:43:00,
2013-01-10 13:48:00,64.1,47.6,30.43,ESE,111,3.5,3.5,55,0.00,CLR,,0.00,WeatherDisplay:10.37,2013-01-10 18:48:00,
2013-01-10 13:53:00,64.2,47.2,30.43,ENE,71,4.6,4.6,54,0.00,CLR,,0.00,WeatherDisplay:10.37,2013-01-10 18:53:00,
2013-01-10 13:58:00,64.4,47.9,30.43,NE,50,5.0,5.0,55,0.00,CLR,,0.00,WeatherDisplay:10.37,2013-01-10 18:58:00,
2013-01-10 14:03:00,64.5,48.0,30.43,East,96,4.6,4.6,55,0.00,CLR,,0.00,WeatherDisplay:10.37,2013-01-10 19:03:00,
2013-01-10 14:08:00,64.8,47.8,30.43,East,99,5.8,5.8,54,0.00,CLR,,0.00,WeatherDisplay:10.37,2013-01-10 19:08:00,
2013-01-10 14:13:00,65.1,48.0,30.42,NE,53,9.2,9.2,54,0.00,CLR,,0.00,WeatherDisplay:10.37,2013-01-10 19:13:00,
2013-01-10 14:18:00,65.2,47.6,30.42,NE,38,1.2,0.0,53,0.00,CLR,,0.00,WeatherDisplay:10.37,2013-01-10 19:18:00,
2013-01-10 14:23:00,65.3,47.7,30.42,ENE,74,7.0,7.0,53,0.00,CLR,,0.00,WeatherDisplay:10.37,2013-01-10 19:23:00,
2013-01-10 14:28:00,65.3,47.7,30.42,NE,46,3.5,3.5,53,0.00,CLR,,0.00,WeatherDisplay:10.37,2013-01-10 19:28:00,
2013-01-10 14:33:00,65.3,47.7,30.42,East,98,5.8,5.8,53,0.00,CLR,,0.00,WeatherDisplay:10.37,2013-01-10 19:33:00,
2013-01-10 14:38:00,65.3,48.2,30.42,NE,51,4.6,4.6,54,0.00,CLR,,0.00,WeatherDisplay:10.37,2013-01-10 19:38:00,
2013-01-10 14:43:00,65.5,47.9,30.42,East,87,5.8,5.8,53,0.00,CLR,,0.00,WeatherDisplay:10.37,2013-01-10 19:43:00,
2013-01-10 14:48:00,65.4,47.8,30.42,NE,54,6.0,6.0,53,0.00,CLR,,0.00,WeatherDisplay:10.37,2013-01-10 19:48:00,
2013-01-10 14:53:00,65.3,47.7,30.42,NE,36,5.0,5.0,53,0.00,CLR,,0.00,WeatherDisplay:10.37,2013-01-10 19:53:00,
2013-01-10 14:58:00,65.5,48.4,30.42,East,96,5.8,5.8,54,0.00,CLR,,0.00,WeatherDisplay:10.37,2013-01-10 19:58:00,
2013-01-10 15:03:00,65.6,48.5,30.41,ENE,70,3.5,3.5,54,0.00,CLR,,0.00,WeatherDisplay:10.37,2013-01-10 20:03:00,
2013-01-10 15:09:00,65.7,48.6,30.41,East,92,3.5,3.5,54,0.00,CLR,,0.00,WeatherDisplay:10.37,2013-01-10 20:09:00,
2013-01-10 15:14:00,65.6,48.5,30.42,NE,53,4.0,4.0,54,0.00,CLR,,0.00,WeatherDisplay:10.37,2013-01-10 20:14:00,
2013-01-10 15:19:00,65.7,48.6,30.42,ENE,71,3.5,3.5,54,0.00,CLR,,0.00,WeatherDisplay:10.37,2013-01-10 20:19:00,
2013-01-10 15:24:00,65.6,48.5,30.42,East,84,4.6,4.6,54,0.00,CLR,,0.00,WeatherDisplay:10.37,2013-01-10 20:24:00,
2013-01-10 15:29:00,65.3,47.7,30.42,ENE,74,3.5,3.5,53,0.00,CLR,,0.00,WeatherDisplay:10.37,2013-01-10 20:29:00,
2013-01-10 15:34:00,65.2,47.6,30.41,ESE,123,4.6,4.6,53,0.00,CLR,,0.00,WeatherDisplay:10.37,2013-01-10 20:34:00,
2013-01-10 15:39:00,65.1,48.0,30.42,East,92,3.5,3.5,54,0.00,CLR,,0.00,WeatherDisplay:10.37,2013-01-10 20:39:00,
2013-01-10 15:44:00,65.1,47.0,30.42,East,86,4.6,4.6,52,0.00,CLR,,0.00,WeatherDisplay:10.37,2013-01-10 20:44:00,
2013-01-10 15:49:00,65.0,46.9,30.41,East,94,0.0,0.0,52,0.00,CLR,,0.00,WeatherDisplay:10.37,2013-01-10 20:49:00,
2013-01-10 15:54:00,65.0,46.9,30.41,East,80,3.5,3.5,52,0.00,CLR,,0.00,WeatherDisplay:10.37,2013-01-10 20:54:00,
2013-01-10 15:59:00,64.9,46.3,30.42,ESE,105,3.5,0.0,51,0.00,CLR,,0.00,WeatherDisplay:10.37,2013-01-10 20:59:00,
2013-01-10 16:05:00,64.8,46.2,30.42,ESE,119,0.0,0.0,51,0.00,CLR,,0.00,WeatherDisplay:10.37,2013-01-10 21:05:00,
2013-01-10 16:10:00,64.7,46.1,30.42,ESE,111,0.0,0.0,51,0.00,CLR,,0.00,WeatherDisplay:10.37,2013-01-10 21:10:00,
2013-01-10 16:15:00,64.6,45.5,30.42,ESE,111,0.0,0.0,50,0.00,CLR,,0.00,WeatherDisplay:10.37,2013-01-10 21:15:00,
2013-01-10 16:20:00,64.6,45.5,30.42,ESE,111,0.0,0.0,50,0.00,CLR,,0.00,WeatherDisplay:10.37,2013-01-10 21:20:00,
2013-01-10 16:25:00,64.5,45.4,30.42,ESE,111,0.0,0.0,50,0.00,CLR,,0.00,WeatherDisplay:10.37,2013-01-10 21:25:00,
2013-01-10 16:30:00,64.4,44.8,30.42,ESE,111,3.5,3.5,49,0.00,CLR,,0.00,WeatherDisplay:10.37,2013-01-10 21:30:00,
2013-01-10 16:35:00,64.3,44.7,30.42,East,97,0.0,0.0,49,0.00,CLR,,0.00,WeatherDisplay:10.37,2013-01-10 21:35:00,
2013-01-10 16:40:00,64.2,45.7,30.42,East,97,3.5,3.5,51,0.00,CLR,,0.00,WeatherDisplay:10.37,2013-01-10 21:40:00,
2013-01-10 16:45:00,64.1,44.5,30.42,East,97,0.0,0.0,49,0.00,CLR,,0.00,WeatherDisplay:10.37,2013-01-10 21:45:00,
2013-01-10 16:50:00,64.0,45.5,30.42,East,97,1.2,0.0,51,0.00,CLR,,0.00,WeatherDisplay:10.37,2013-01-10 21:50:00,
2013-01-10 16:55:00,63.9,44.4,30.42,East,97,0.0,0.0,49,0.00,CLR,,0.00,WeatherDisplay:10.37,2013-01-10 21:55:00,
2013-01-10 17:00:00,63.8,44.8,30.42,East,97,0.0,0.0,50,0.00,CLR,,0.00,WeatherDisplay:10.37,2013-01-10 22:00:00,
2013-01-10 17:05:00,63.6,44.1,30.42,East,97,0.0,0.0,49,0.00,CLR,,0.00,WeatherDisplay:10.37,2013-01-10 22:05:00,
2013-01-10 17:10:00,63.4,43.9,30.43,East,97,0.0,0.0,49,0.00,CLR,,0.00,WeatherDisplay:10.37,2013-01-10 22:10:00,
2013-01-10 17:16:00,63.1,43.1,30.42,East,97,3.5,3.5,48,0.00,CLR,,0.00,WeatherDisplay:10.37,2013-01-10 22:16:00,
2013-01-10 17:21:00,62.9,43.4,30.42,East,97,0.0,0.0,49,0.00,CLR,,0.00,WeatherDisplay:10.37,2013-01-10 22:21:00,
2013-01-10 17:26:00,62.6,43.2,30.42,East,97,0.0,0.0,49,0.00,CLR,,0.00,WeatherDisplay:10.37,2013-01-10 22:26:00,
2013-01-10 17:31:00,62.0,42.6,30.42,NE,46,4.6,4.6,49,0.00,CLR,,0.00,WeatherDisplay:10.37,2013-01-10 22:31:00,
2013-01-10 17:36:00,61.2,41.3,30.43,ENE,71,5.0,5.0,48,0.00,CLR,,0.00,WeatherDisplay:10.37,2013-01-10 22:36:00,
2013-01-10 17:41:00,60.8,41.0,30.43,NE,52,3.5,3.5,48,0.00,CLR,,0.00,WeatherDisplay:10.37,2013-01-10 22:41:00,
2013-01-10 17:46:00,60.4,40.6,30.44,ENE,60,3.5,3.5,48,0.00,CLR,,0.00,WeatherDisplay:10.37,2013-01-10 22:46:00,
2013-01-10 17:52:00,60.1,40.3,30.43,ENE,59,2.3,2.3,48,0.00,CLR,,0.00,WeatherDisplay:10.37,2013-01-10 22:52:00,
2013-01-10 17:57:00,59.8,40.1,30.43,ENE,59,4.0,4.0,48,0.00,CLR,,0.00,WeatherDisplay:10.37,2013-01-10 22:57:00,
2013-01-10 18:02:00,59.4,40.2,30.43,ENE,59,0.0,0.0,49,0.00,CLR,,0.00,WeatherDisplay:10.37,2013-01-10 23:02:00,
2013-01-10 18:07:00,59.0,39.9,30.43,East,84,5.0,5.0,49,0.00,CLR,,0.00,WeatherDisplay:10.37,2013-01-10 23:07:00,
2013-01-10 18:12:00,58.8,40.2,30.43,NE,52,4.6,4.6,50,0.00,CLR,,0.00,WeatherDisplay:10.37,2013-01-10 23:12:00,
2013-01-10 18:17:00,58.4,39.8,30.43,ENE,60,2.3,2.3,50,0.00,CLR,,0.00,WeatherDisplay:10.37,2013-01-10 23:17:00,
2013-01-10 18:22:00,58.1,40.1,30.43,ENE,63,3.5,3.5,51,0.00,CLR,,0.00,WeatherDisplay:10.37,2013-01-10 23:22:00,
2013-01-10 18:27:00,57.7,39.7,30.43,ENE,63,0.0,0.0,51,0.00,CLR,,0.00,WeatherDisplay:10.37,2013-01-10 23:27:00,
2013-01-10 18:32:00,57.4,39.9,30.43,ENE,63,3.5,0.0,52,0.00,CLR,,0.00,WeatherDisplay:10.37,2013-01-10 23:32:00,
2013-01-10 18:37:00,57.1,39.6,30.44,ENE,63,0.0,0.0,52,0.00,CLR,,0.00,WeatherDisplay:10.37,2013-01-10 23:37:00,
2013-01-10 18:42:00,56.8,39.8,30.44,ENE,63,0.0,0.0,53,0.00,CLR,,0.00,WeatherDisplay:10.37,2013-01-10 23:42:00,
2013-01-10 18:47:00,56.5,39.6,30.43,ENE,63,3.5,3.5,53,0.00,CLR,,0.00,WeatherDisplay:10.37,2013-01-10 23:47:00,
2013-01-10 18:52:00,56.2,39.8,30.43,ENE,63,0.0,0.0,54,0.00,CLR,,0.00,WeatherDisplay:10.37,2013-01-10 23:52:00,
2013-01-10 18:57:00,55.9,39.5,30.43,ENE,63,0.0,0.0,54,0.00,CLR,,0.00,WeatherDisplay:10.37,2013-01-10 23:57:00,
2013-01-10 19:02:00,55.7,39.3,30.43,East,82,1.2,1.2,54,0.00,CLR,,0.00,WeatherDisplay:10.37,2013-01-11 00:02:00,
2013-01-10 19:07:00,55.5,39.6,30.43,East,82,2.3,2.3,55,0.00,CLR,,0.00,WeatherDisplay:10.37,2013-01-11 00:07:00,
2013-01-10 19:13:00,55.2,39.3,30.43,East,82,2.3,0.0,55,0.00,CLR,,0.00,WeatherDisplay:10.37,2013-01-11 00:13:00,
2013-01-10 19:18:00,55.0,39.1,30.43,East,82,3.5,3.5,55,0.00,CLR,,0.00,WeatherDisplay:10.37,2013-01-11 00:18:00,
2013-01-10 19:23:00,54.8,39.4,30.43,East,82,0.0,0.0,56,0.00,CLR,,0.00,WeatherDisplay:10.37,2013-01-11 00:23:00,
2013-01-10 19:28:00,54.6,39.7,30.43,East,82,0.0,0.0,57,0.00,CLR,,0.00,WeatherDisplay:10.37,2013-01-11 00:28:00,
2013-01-10 19:33:00,54.4,39.5,30.42,East,82,0.0,0.0,57,0.00,CLR,,0.00,WeatherDisplay:10.37,2013-01-11 00:33:00,
2013-01-10 19:38:00,54.1,38.7,30.42,East,82,0.0,0.0,56,0.00,CLR,,0.00,WeatherDisplay:10.37,2013-01-11 00:38:00,
2013-01-10 19:43:00,53.9,39.5,30.42,East,82,0.0,0.0,58,0.00,CLR,,0.00,WeatherDisplay:10.37,2013-01-11 00:43:00,
2013-01-10 19:48:00,53.7,39.3,30.43,East,82,0.0,0.0,58,0.00,CLR,,0.00,WeatherDisplay:10.37,2013-01-11 00:48:00,
2013-01-10 19:53:00,53.5,39.1,30.43,East,82,0.0,0.0,58,0.00,CLR,,0.00,WeatherDisplay:10.37,2013-01-11 00:53:00,
2013-01-10 19:58:00,53.4,39.0,30.43,East,82,0.0,0.0,58,0.00,CLR,,0.00,WeatherDisplay:10.37,2013-01-11 00:58:00,
2013-01-10 20:03:00,53.2,38.8,30.42,East,82,0.0,0.0,58,0.00,CLR,,0.00,WeatherDisplay:10.37,2013-01-11 01:03:00,
2013-01-10 20:08:00,53.1,38.7,30.42,East,82,0.0,0.0,58,0.00,CLR,,0.00,WeatherDisplay:10.37,2013-01-11 01:08:00,
2013-01-10 20:13:00,53.0,39.0,30.42,East,82,0.0,0.0,59,0.00,CLR,,0.00,WeatherDisplay:10.37,2013-01-11 01:13:00,
2013-01-10 20:18:00,52.8,38.4,30.43,East,82,0.0,0.0,58,0.00,CLR,,0.00,WeatherDisplay:10.37,2013-01-11 01:18:00,
2013-01-10 20:23:00,52.8,38.4,30.43,East,82,0.0,0.0,58,0.00,CLR,,0.00,WeatherDisplay:10.37,2013-01-11 01:23:00,
2013-01-10 20:28:00,52.8,38.4,30.43,East,82,0.0,0.0,58,0.00,CLR,,0.00,WeatherDisplay:10.37,2013-01-11 01:28:00,
2013-01-10 20:33:00,52.7,38.3,30.43,East,82,0.0,0.0,58,0.00,CLR,,0.00,WeatherDisplay:10.37,2013-01-11 01:33:00,
2013-01-10 20:38:00,52.7,38.3,30.43,East,82,0.0,0.0,58,0.00,CLR,,0.00,WeatherDisplay:10.37,2013-01-11 01:38:00,
2013-01-10 20:43:00,52.7,38.3,30.43,East,82,1.2,0.0,58,0.00,CLR,,0.00,WeatherDisplay:10.37,2013-01-11 01:43:00,
2013-01-10 20:48:00,52.6,38.2,30.43,East,82,0.0,0.0,58,0.00,CLR,,0.00,WeatherDisplay:10.37,2013-01-11 01:48:00,
2013-01-10 20:53:00,52.6,38.7,30.43,East,82,0.0,0.0,59,0.00,CLR,,0.00,WeatherDisplay:10.37,2013-01-11 01:53:00,
2013-01-10 20:58:00,52.5,38.1,30.42,East,82,0.0,0.0,58,0.00,CLR,,0.00,WeatherDisplay:10.37,2013-01-11 01:58:00,
2013-01-10 21:03:00,52.3,38.4,30.42,East,82,0.0,0.0,59,0.00,CLR,,0.00,WeatherDisplay:10.37,2013-01-11 02:03:00,
2013-01-10 21:08:00,52.2,38.7,30.42,East,82,0.0,0.0,60,0.00,CLR,,0.00,WeatherDisplay:10.37,2013-01-11 02:08:00,
2013-01-10 21:13:00,52.1,39.1,30.42,East,82,3.5,3.5,61,0.00,CLR,,0.00,WeatherDisplay:10.37,2013-01-11 02:13:00,
2013-01-10 21:18:00,52.1,38.2,30.42,ENE,68,2.3,2.3,59,0.00,CLR,,0.00,WeatherDisplay:10.37,2013-01-11 02:18:00,
2013-01-10 21:23:00,52.2,38.7,30.42,ENE,69,0.0,0.0,60,0.00,CLR,,0.00,WeatherDisplay:10.37,2013-01-11 02:23:00,
2013-01-10 21:28:00,52.3,38.8,30.42,ENE,68,0.0,0.0,60,0.00,CLR,,0.00,WeatherDisplay:10.37,2013-01-11 02:28:00,
2013-01-10 21:33:00,52.4,38.0,30.42,ENE,68,0.0,0.0,58,0.00,CLR,,0.00,WeatherDisplay:10.37,2013-01-11 02:33:00,
2013-01-10 21:38:00,52.6,38.2,30.42,ENE,68,3.5,3.5,58,0.00,CLR,,0.00,WeatherDisplay:10.37,2013-01-11 02:38:00,
2013-01-10 21:43:00,52.8,38.4,30.42,ENE,68,2.3,2.3,58,0.00,CLR,,0.00,WeatherDisplay:10.37,2013-01-11 02:43:00,
2013-01-10 21:48:00,53.0,38.2,30.41,ENE,67,4.0,4.0,57,0.00,CLR,,0.00,WeatherDisplay:10.37,2013-01-11 02:48:00,
2013-01-10 21:53:00,53.0,38.2,30.41,ENE,61,3.5,3.5,57,0.00,CLR,,0.00,WeatherDisplay:10.37,2013-01-11 02:53:00,
2013-01-10 21:58:00,53.1,38.7,30.41,ENE,61,3.5,3.5,58,0.00,CLR,,0.00,WeatherDisplay:10.37,2013-01-11 02:58:00,
2013-01-10 22:04:00,53.1,38.3,30.41,NE,55,4.0,4.0,57,0.00,CLR,,0.00,WeatherDisplay:10.37,2013-01-11 03:04:00,
2013-01-10 22:09:00,53.2,38.4,30.41,East,86,3.5,3.5,57,0.00,CLR,,0.00,WeatherDisplay:10.37,2013-01-11 03:09:00,
2013-01-10 22:14:00,53.2,38.4,30.41,East,86,0.0,0.0,57,0.00,CLR,,0.00,WeatherDisplay:10.37,2013-01-11 03:14:00,
2013-01-10 22:19:00,53.2,38.4,30.41,East,86,2.3,2.3,57,0.00,CLR,,0.00,WeatherDisplay:10.37,2013-01-11 03:19:00,
2013-01-10 22:24:00,53.2,37.9,30.41,East,86,0.0,0.0,56,0.00,CLR,,0.00,WeatherDisplay:10.37,2013-01-11 03:24:00,
2013-01-10 22:29:00,53.2,38.4,30.41,East,86,0.0,0.0,57,0.00,CLR,,0.00,WeatherDisplay:10.37,2013-01-11 03:29:00,
2013-01-10 22:34:00,53.2,37.9,30.40,East,86,0.0,0.0,56,0.00,CLR,,0.00,WeatherDisplay:10.37,2013-01-11 03:34:00,
2013-01-10 22:40:00,53.2,38.4,30.40,East,86,3.5,3.5,57,0.00,CLR,,0.00,WeatherDisplay:10.37,2013-01-11 03:40:00,
2013-01-10 22:45:00,53.1,38.3,30.40,East,86,0.0,0.0,57,0.00,CLR,,0.00,WeatherDisplay:10.37,2013-01-11 03:45:00,
2013-01-10 22:50:00,53.1,38.3,30.40,East,86,3.5,3.5,57,0.00,CLR,,0.00,WeatherDisplay:10.37,2013-01-11 03:50:00,
2013-01-10 22:55:00,53.0,38.6,30.40,East,86,3.5,3.5,58,0.00,CLR,,0.00,WeatherDisplay:10.37,2013-01-11 03:55:00,
2013-01-10 23:00:00,53.0,38.2,30.40,East,86,2.3,2.3,57,0.00,CLR,,0.00,WeatherDisplay:10.37,2013-01-11 04:00:00,
2013-01-10 23:05:00,52.9,39.0,30.40,East,86,2.3,0.0,59,0.00,CLR,,0.00,WeatherDisplay:10.37,2013-01-11 04:05:00,
2013-01-10 23:10:00,52.9,38.1,30.39,East,86,3.5,3.5,57,0.00,CLR,,0.00,WeatherDisplay:10.37,2013-01-11 04:10:00,
2013-01-10 23:15:00,52.8,38.4,30.39,East,86,3.5,3.5,58,0.00,CLR,,0.00,WeatherDisplay:10.37,2013-01-11 04:15:00,
2013-01-10 23:21:00,52.8,38.4,30.39,East,86,0.0,0.0,58,0.00,CLR,,0.00,WeatherDisplay:10.37,2013-01-11 04:21:00,
2013-01-10 23:26:00,52.8,38.4,30.39,East,86,3.5,3.5,58,0.00,CLR,,0.00,WeatherDisplay:10.37,2013-01-11 04:26:00,
2013-01-10 23:31:00,52.8,38.4,30.38,East,82,1.2,0.0,58,0.00,CLR,,0.00,WeatherDisplay:10.37,2013-01-11 04:31:00,
2013-01-10 23:36:00,52.7,38.3,30.38,East,82,4.0,4.0,58,0.00,CLR,,0.00,WeatherDisplay:10.37,2013-01-11 04:36:00,
2013-01-10 23:41:00,52.7,38.8,30.38,ENE,60,3.5,3.5,59,0.00,CLR,,0.00,WeatherDisplay:10.37,2013-01-11 04:41:00,
2013-01-10 23:46:00,52.7,38.8,30.37,ENE,60,0.0,0.0,59,0.00,CLR,,0.00,WeatherDisplay:10.37,2013-01-11 04:46:00,
2013-01-10 23:51:00,52.7,39.2,30.37,ENE,60,3.5,3.5,60,0.00,CLR,,0.00,WeatherDisplay:10.37,2013-01-11 04:51:00,
2013-01-10 23:56:00,52.7,39.2,30.37,ENE,76,2.3,2.3,60,0.00,CLR,,0.00,WeatherDisplay:10.37,2013-01-11 04:56:00,